Regional Weather Roundup
Issued by NWS

Home | Current Version | Previous Version | Text Only | Print | Product List | Glossary On
Versions: 1 2 3 4 5 6 7 8 9 10 11 12 13 14 15 16 17 18 19 20 21 22 23 24 25 26 27 28 29 30 31 32 33 34 35 36 37 38 39 40 41 42 43 44 45 46 47 48 49 50
393
ASUS44 KLIX 020705
RWRLA
LOUISIANA WEATHER ROUNDUP
NATIONAL WEATHER SERVICE NEW ORLEANS LA
200 AM CDT THU OCT 02 2014

NOTE: "FAIR" INDICATES FEW OR NO CLOUDS BELOW 12,000 FEET WITH NO
      SIGNIFICANT WEATHER AND/OR OBSTRUCTIONS TO VISIBILITY.
      SKY/WX - SKY CONDITION AND SIGNIFICANT WEATHER.
      TMP - AIR TEMPERATURE.    DP   - DEWPOINT TEMPERATURE.
      RH  - RELATIVE HUMIDITY.  PRES - PRESSURE.
      HX  - HEAT INDEX.         WCI  - WIND CHILL INDEX.

*  THESE STATIONS ARE NOT NWS OR FAA STATIONS AND ARE NOT UNDER
   NWS QUALITY CONTROL.

LAZ040-048-061>063-065-066-069-020800-
SOUTHEAST LOUISIANA

CITY           SKY/WX    TMP DP  RH WIND       PRES   REMARKS
N.O. AUDUBON   NOT AVBL
N.O. INTL ARPT MOCLDY    78  75  90 SE7       29.93S
N.O. LAKEFRONT CLEAR     78  75  90 SE7       29.94S
N.O. DOWNTOWN* FAIR      79  73  83 CALM      29.94S
SLIDELL        CLOUDY    78  75  90 SE3       29.94R
BATON ROUGE    PTCLDY    76  74  93 SE5       29.92S
BOOTHVILLE     CLEAR     78  77  96 SE5       29.95S
BELLE CHASSE   CLEAR     79  74  84 SE6       29.93S
BOGALUSA*      PTSUNNY   77  72  86 CALM      29.96S
GALLIANO*      NOT AVBL
NEW ROADS*     CLOUDY    76  75  96 SE5       29.92R
GONZALES*      FAIR      75  75 100 CALM      29.92S
HAMMOND*       CLOUDY    77  73  88 SE5       29.95S
HOUMA*         CLEAR    N/A N/A N/A CALM      29.92F
PORT FOURCHON* SUNNY     81  75  83 SE8       29.96F

$$

LAZ041-044-053-054-020800-
SOUTHWEST LOUISIANA

CITY           SKY/WX    TMP DP  RH WIND       PRES   REMARKS
LAKE CHARLES   CLEAR     79  77  94 S3        29.87F
LAFAYETTE      CLOUDY    78  77  96 CALM      29.90F
PATTERSON      CLEAR     75  75 100 SE3       29.94S
SALT POINT       N/A     82  79  90 E3        29.90F
NEW IBERIA     CLOUDY    78  76  93 SE7       29.91S
CHENAULT AIRPK MOCLDY    76  76  99 CALM      29.88F FOG

$$

LAZ027-028-020800-
CENTRAL LOUISIANA

CITY           SKY/WX    TMP DP  RH WIND       PRES   REMARKS
FORT POLK      CLOUDY    77  76  95 S10       29.88F
ALEXANDRIA INT CLOUDY    77  75  93 S6        29.88S
ALEXANDRIA     MOCLDY    75  73  93 S7        29.90S

$$

LAZ001-002-020800-
NORTHWEST LOUISIANA

CITY           SKY/WX    TMP DP  RH WIND       PRES   REMARKS
SHREVEPORT     CLEAR     76  74  93 S7        29.84S
BARKSDALE AFB  CLEAR     76  74  93 S9        29.85S
DTN SHREVEPORT PTCLDY    75  72  90 S7        29.85S

$$

LAZ014-016-020800-
NORTHEAST LOUISIANA

CITY           SKY/WX    TMP DP  RH WIND       PRES   REMARKS
MONROE         CLOUDY    77  73  87 S7        29.89F
TALLULAH       CLOUDY    78  72  81 S10       29.91S

$$




USA.gov is the U.S. government's official web portal to all federal, state and local government web resources and services.